sat.trackr.live / text

‹ back to catalog

STARLINK-3516

NORAD 51739 · 2022-016AB

PAYLOAD ACTIVE UNKNOWN

§ Identity

Operator
Country
US
Launch date
2022-02-21
Launch site
AFETR
Launch vehicle
Mass (kg)
RCS (m²)

Purposes: comms

External: N2YO · Heavens-Above · Gunter

§ Orbital elements

Epoch: 2026-09-20T04:05:15.552096Z

Period
93.79 min
Inclination
53.1596°
Eccentricity
0.0001179
Mean motion
15.35412457 rev/d
Perigee alt
458.9 km
Apogee alt
460.5 km
Semi-major
6,837.8 km
B*
5.4988e-5
RAAN
151.1048°
Arg perigee
80.1484°
Mean anomaly
279.9652°
Rev number
25,312

§ Raw data

STARLINK-35161 51739U 22016AB  26263.17031889  .00001539  00000+0  54988-4 0  99972 51739  53.1596 151.1048 0001179  80.1484 279.9652 15.35412457253129

JSON: /api/v1/satellites/51739 · /tle

For live sub-satellite position, see the globe view (requires WebGL).

§ Visibility from observer

Set your observer location to see the next 7 days of passes ≥ 10°. The values pass through the URL so the page stays shareable.

No JS? Fill the form by hand. The geolocation button needs JavaScript.